Flag for Germany Weather past 2 weeks in Deggendorf, Bavaria, Germany

Now
53 °F

Overcast.


Feels Like: 53 °F
Forecast: 45 / 58 °F
Wind: 2 mph from West

Location: Straubing

Current Time: May 26, 2015 at 6:20:42 AM

Latest Report: May 26, 2015 at 4:00 AM


Visibility: 5 mi

Pressure: 29.90 "Hg

Humidity: 96%

Dew point: 52 °F

Location of DeggendorfLocation

Historic Weather in Deggendorf — Graph

°F

Deggendorf temperature yesterday

Maximum temperature yesterday: 67 °F (at 5:00 PM)
Minimum temperature yesterday: 51 °F (at 6:00 AM)
Average temperature yesterday: 58 °F

Past Weeks' High & Low Weather Summary

 TemperatureHumidityPressure
High78 °F (May 12, 5:00 PM)100% (May 11, 6:00 AM)30.40 "Hg (May 11, 6:00 AM)
Low42 °F (May 11, 4:00 AM)36% (May 16, 3:00 PM)29.70 "Hg (May 18, 8:00 PM)
Average57 °F76%30.05 "Hg
* Reported May 11 4:00 AM — May 26 4:00 AM, Deggendorf, Weather by CustomWeather, © 2015

Note: Actual official high and low records may vary slightly from our data, if they occured in-between our weather recording intervals... More about our weather records

Advertising

Deggendorf weather history for previous 24 hours

 ConditionsComfort  
Time TempWeatherWind HumidityBarometerVisibility
4:00 AM
Tue, May 26
53 °FOvercast.2 mph96%29.90 "Hg5 mi
3:00 AM53 °FOvercast.2 mph94%29.90 "Hg7 mi
2:00 AM53 °FOvercast.2 mph93%29.91 "Hg11 mi
1:00 AM54 °FOvercast.3 mph89%29.91 "Hg15 mi
12:00 AM53 °FOvercast.2 mph94%29.91 "Hg11 mi
10:00 PM
Mon, May 25
54 °FOvercast.1 mph91%29.91 "Hg17 mi
9:00 PM56 °FOvercast.2 mph84%29.91 "Hg22 mi
8:00 PM58 °FLight rain. Overcast.7 mph75%29.89 "Hg28 mi
7:00 PM65 °FOvercast.2 mph62%29.84 "Hg22 mi
6:00 PM67 °FScattered clouds.2 mph53%29.85 "Hg19 mi
5:00 PM67 °FOvercast.2 mph54%29.86 "Hg19 mi
4:00 PM66 °FPartly sunny.2 mph60%29.88 "Hg19 mi
3:00 PM64 °FScattered clouds.5 mph62%29.90 "Hg12 mi
2:00 PM65 °FScattered clouds.2 mph68%29.93 "Hg10 mi
1:00 PM61 °FOvercast.2 mph74%29.96 "Hg7 mi
12:00 PM58 °FOvercast.2 mph74%29.98 "Hg7 mi
10:00 AM56 °FOvercast.1 mph82%30.01 "Hg5 mi
9:00 AM55 °FFog.1 mph89%30.02 "Hg4 mi
8:00 AM53 °FFog.1 mph96%30.03 "Hg2 mi
7:00 AM52 °FOvercast.1 mph100%30.03 "Hg1 mi
6:00 AM51 °FOvercast.1 mph100%30.03 "Hg0 mi
Weather by CustomWeather, © 2015

See weather overviewHow to use our weather pages